"TOA5","MOW","CPU:UNC_MeetingWaters","DataHourly"
"TIMESTAMP","SondeTempC","SpCond","DOSat","DOmg","pH","Turb","BattVolt_Min"
"TS","","","","","","",""
"","Smp","Smp","Smp","Smp","Smp","Smp","Min"
"2004-01-01 00:00:00",7.03000020981,0.00400000018999,94.0999984741,11.4200000763,7.61000013351,3.90000009537,12.3199996948
"2004-01-01 01:00:00",6.76999998093,0.00300000002608,94.5,11.5399999619,7.63999986649,4.0,12.2899999619
"2004-01-01 02:00:00",6.48999977112,0.00300000002608,94.9000015259,11.6700000763,7.63000011444,6.5,12.2700004578
"2004-01-01 03:00:00",6.13000011444,0.00300000002608,95.1999969482,11.8100004196,7.65999984741,9.80000019073,12.2299995422
"2004-01-01 04:00:00",5.94999980927,0.00300000002608,95.3000030518,11.8699998856,7.63999986649,9.30000019073,12.1999998093
"2004-01-01 05:00:00",5.69999980927,0.00200000009499,95.9000015259,12.029999733,7.67000007629,6.80000019073,12.1700000763
"2004-01-01 06:00:00",5.61000013351,0.00200000009499,96.0,12.0699996948,7.65000009537,4.19999980927,12.1300001144
"2004-01-01 07:00:00",5.42000007629,0.00200000009499,96.3000030518,12.1599998474,7.63999986649,3.70000004768,12.1000003815
"2004-01-01 08:00:00",5.17000007629,0.00200000009499,96.4000015259,12.2600002289,7.65000009537,3.29999995232,12.0900001526
"2004-01-01 09:00:00",5.09999990463,0.00200000009499,96.8000030518,12.3299999237,7.65999984741,3.59999990463,12.1000003815
"2004-01-01 10:00:00",5.57999992371,0.00200000009499,98.5999984741,12.4099998474,7.65999984741,2.70000004768,12.6499996185
"2004-01-01 11:00:00",6.23999977112,0.00200000009499,100.400001526,12.4300003052,7.67000007629,2.40000009537,12.6800003052
"2004-01-01 12:00:00",7.30999994278,0.00200000009499,103.199996948,12.4300003052,7.67999982834,2.0,13.1099996567
"2004-01-01 13:00:00",8.27000045776,0.00200000009499,103.599998474,12.1899995804,7.69000005722,2.0,13.4600000381
"2004-01-01 14:00:00",8.67000007629,0.00200000009499,102.199996948,11.9099998474,7.65999984741,2.20000004768,12.8000001907
"2004-01-01 15:00:00",9.03999996185,0.00300000002608,100.800003052,11.6400003433,7.67000007629,2.09999990463,12.7100000381
"2004-01-01 16:00:00",9.25,0.00200000009499,99.4000015259,11.4300003052,7.69000005722,1.79999995232,12.6300001144
"2004-01-01 17:00:00",9.17000007629,0.00200000009499,97.5999984741,11.2399997711,7.69000005722,2.0,12.5500001907
"2004-01-01 18:00:00",8.81000041962,0.00200000009499,95.9000015259,11.1300001144,7.67000007629,2.0,12.5100002289
"2004-01-01 19:00:00",8.68000030518,0.00200000009499,95.4000015259,11.1199998856,7.65999984741,2.20000004768,12.470000267
"2004-01-01 20:00:00",8.52000045776,0.00200000009499,95.0999984741,11.1199998856,7.65999984741,2.5,12.4399995804
"2004-01-01 21:00:00",8.27000045776,0.00200000009499,95.0999984741,11.1899995804,7.65999984741,2.20000004768,12.4200000763
"2004-01-01 22:00:00",8.06000041962,0.00200000009499,95.1999969482,11.2600002289,7.65999984741,2.70000004768,12.3999996185
"2004-01-01 23:00:00",7.92000007629,0.00200000009499,94.9000015259,11.2700004578,7.65999984741,2.29999995232,12.3800001144
"2004-01-02 00:00:00",7.78999996185,0.00200000009499,95.0,11.3100004196,7.67000007629,2.70000004768,12.3699998856
"2004-01-02 01:00:00",7.71000003815,0.00200000009499,95.1999969482,11.3500003815,7.65999984741,2.09999990463,12.3599996567
"2004-01-02 02:00:00",7.84000015259,0.00200000009499,95.5,11.3599996567,7.67000007629,1.89999997616,12.3500003815
"2004-01-02 03:00:00",7.84000015259,0.00200000009499,95.6999969482,11.3800001144,7.65999984741,1.70000004768,12.3400001526
"2004-01-02 04:00:00",7.76000022888,0.00200000009499,95.5999984741,11.3900003433,7.65999984741,1.89999997616,12.3299999237
"2004-01-02 05:00:00",7.65000009537,0.00200000009499,95.3000030518,11.3900003433,7.65999984741,2.0,12.3100004196
"2004-01-02 06:00:00",7.42999982834,0.00200000009499,95.5,11.470000267,7.65999984741,1.89999997616,12.3000001907
"2004-01-02 07:00:00",7.34000015259,0.00200000009499,95.6999969482,11.529999733,7.67000007629,1.89999997616,12.279999733
"2004-01-02 08:00:00",7.44000005722,0.00200000009499,96.1999969482,11.5500001907,7.67999982834,2.09999990463,12.2600002289
"2004-01-02 09:00:00",7.67000007629,0.00200000009499,97.6999969482,11.6599998474,7.69000005722,1.60000002384,12.3999996185
"2004-01-02 10:00:00",8.07999992371,0.171000003815,98.9000015259,11.6800003052,7.69000005722,2.29999995232,12.4899997711
"2004-01-02 11:00:00",8.68999958038,0.172999992967,100.300003052,11.6800003052,7.69999980927,3.0,12.9600000381
"2004-01-02 12:00:00",9.46000003815,0.170000001788,101.300003052,11.5799999237,7.71999979019,3.5,12.9300003052
"2004-01-02 13:00:00",10.1400003433,0.16400000453,100.900001526,11.3500003815,7.73000001907,4.80000019073,12.779999733
"2004-01-02 14:00:00",10.5900001526,0.00400000018999,100.5,11.1800003052,7.75,8.19999980927,12.75
"2004-01-02 15:00:00",10.8800001144,0.00300000002608,98.6999969482,10.9200000763,7.73999977112,14.8999996185,12.6400003433
"2004-01-02 16:00:00",11.0699996948,0.00200000009499,97.9000015259,10.779999733,7.73999977112,16.2000007629,12.6000003815
"2004-01-02 17:00:00",11.0699996948,0.00300000002608,96.5999984741,10.6300001144,7.73000001907,14.8999996185,12.529999733
"2004-01-02 18:00:00",10.9600000381,0.00200000009499,94.8000030518,10.4600000381,7.73000001907,11.1999998093,12.5
"2004-01-02 19:00:00",10.7600002289,0.0270000007004,94.3000030518,10.4600000381,7.71999979019,9.5,12.470000267
"2004-01-02 20:00:00",10.3900003433,0.00300000002608,93.5999984741,10.470000267,7.73000001907,7.0,12.4399995804
"2004-01-02 21:00:00",10.0699996948,0.00200000009499,93.3000030518,10.5200004578,7.73000001907,5.5,12.4200000763
"2004-01-02 22:00:00",9.86999988556,0.00200000009499,93.3000030518,10.5699996948,7.73000001907,4.69999980927,12.3999996185
"2004-01-02 23:00:00",9.71000003815,0.00200000009499,93.3000030518,10.6000003815,7.71999979019,5.40000009537,12.3800001144
"2004-01-03 00:00:00",9.52000045776,0.00200000009499,93.1999969482,10.6499996185,7.71999979019,3.59999990463,12.3699998856
"2004-01-03 01:00:00",9.39999961853,0.00200000009499,93.0,10.6499996185,7.73000001907,4.19999980927,12.3500003815
"2004-01-03 02:00:00",9.22000026703,0.00200000009499,92.8000030518,10.6700000763,7.71999979019,4.09999990463,12.3299999237
"2004-01-03 03:00:00",9.18999958038,0.00200000009499,93.0999984741,10.720000267,7.71999979019,3.59999990463,12.3100004196
"2004-01-03 04:00:00",9.10999965668,0.00200000009499,93.1999969482,10.75,7.69999980927,3.20000004768,12.3000001907
"2004-01-03 05:00:00",8.93000030518,0.00200000009499,93.1999969482,10.7899999619,7.69000005722,2.79999995232,12.279999733
"2004-01-03 06:00:00",8.85000038147,0.00300000002608,93.3000030518,10.8299999237,7.67999982834,2.40000009537,12.2600002289
"2004-01-03 07:00:00",8.68999958038,0.00300000002608,93.5999984741,10.8999996185,7.67000007629,2.29999995232,12.2399997711
"2004-01-03 08:00:00",8.55000019073,0.00300000002608,93.9000015259,10.970000267,7.67000007629,2.40000009537,12.220000267
"2004-01-03 09:00:00",8.52000045776,0.00300000002608,95.0999984741,11.1199998856,7.67000007629,2.40000009537,12.2399997711
"2004-01-03 10:00:00",8.89000034332,0.165000006557,97.4000015259,11.279999733,7.67999982834,3.29999995232,12.6400003433
"2004-01-03 11:00:00",9.64999961853,0.16400000453,99.0,11.2700004578,7.69000005722,3.29999995232,12.6800003052
"2004-01-03 12:00:00",10.6499996185,0.172999992967,100.900001526,11.2100000381,7.73999977112,3.20000004768,13.0799999237
"2004-01-03 13:00:00",11.4499998093,0.0140000004321,101.800003052,11.1099996567,7.76000022888,3.29999995232,13.3400001526
"2004-01-03 14:00:00",11.8800001144,0.0179999992251,100.800003052,10.8900003433,7.73999977112,3.20000004768,12.6899995804
"2004-01-03 15:00:00",12.2899999619,0.0170000009239,98.3000030518,10.5200004578,7.73999977112,3.5,12.6000003815
"2004-01-03 16:00:00",12.5399999619,0.01600000076,97.0999984741,10.3299999237,7.75,3.90000009537,12.5699996948
"2004-01-03 17:00:00",12.5399999619,0.01600000076,95.1999969482,10.1400003433,7.73000001907,3.70000004768,12.529999733
"2004-01-03 18:00:00",12.470000267,0.178000003099,93.9000015259,10.0100002289,7.71000003815,3.29999995232,12.5100002289
"2004-01-03 19:00:00",12.3199996948,0.00300000002608,93.0,9.94999980927,7.71000003815,3.0,12.4799995422
"2004-01-03 20:00:00",12.1599998474,0.00200000009499,92.4000015259,9.92000007629,7.71000003815,2.29999995232,12.4600000381
"2004-01-03 21:00:00",12.0500001907,0.00200000009499,92.1999969482,9.93000030518,7.71000003815,2.40000009537,12.4399995804
"2004-01-03 22:00:00",11.970000267,0.00200000009499,92.4000015259,9.96000003815,7.73000001907,2.0,12.4300003052
"2004-01-03 23:00:00",12.029999733,0.00200000009499,92.5,9.96000003815,7.71000003815,2.0,12.4200000763
"2004-01-04 00:00:00",12.1000003815,0.00300000002608,92.5999984741,9.96000003815,7.71000003815,1.89999997616,12.3999996185
"2004-01-04 01:00:00",12.0900001526,0.00300000002608,92.5,9.94999980927,7.69999980927,2.0,12.3999996185
"2004-01-04 02:00:00",12.1000003815,0.00300000002608,92.5999984741,9.94999980927,7.69999980927,1.89999997616,12.3800001144
"2004-01-04 03:00:00",12.0799999237,0.00300000002608,92.6999969482,9.97000026703,7.69999980927,1.79999995232,12.3599996567
"2004-01-04 04:00:00",12.0200004578,0.00300000002608,92.5999984741,9.97000026703,7.69999980927,1.89999997616,12.3400001526
"2004-01-04 05:00:00",11.9399995804,0.00300000002608,92.3000030518,9.96000003815,7.71000003815,1.89999997616,12.3199996948
"2004-01-04 06:00:00",12.0,0.00300000002608,92.5999984741,9.97999954224,7.73000001907,3.09999990463,12.3000001907
"2004-01-04 07:00:00",12.1499996185,0.00400000018999,93.0999984741,10.0,7.71999979019,2.29999995232,12.3000001907
"2004-01-04 08:00:00",12.220000267,0.00400000018999,93.1999969482,10.0,7.71000003815,2.59999990463,12.2899999619
"2004-01-04 09:00:00",12.4200000763,0.00300000002608,94.1999969482,10.0600004196,7.73000001907,2.29999995232,12.3199996948
"2004-01-04 10:00:00",12.7600002289,0.00300000002608,96.5,10.220000267,7.73999977112,2.0,12.5
"2004-01-04 11:00:00",13.0399999619,0.00300000002608,96.9000015259,10.2100000381,7.75,2.09999990463,12.5200004578
"2004-01-04 12:00:00",13.4499998093,0.00300000002608,97.6999969482,10.1899995804,7.76000022888,2.09999990463,12.5799999237
"2004-01-04 13:00:00",13.9300003052,0.00300000002608,99.4000015259,10.2600002289,7.76999998093,2.09999990463,12.7600002289
"2004-01-04 14:00:00",14.3199996948,0.00400000018999,99.3000030518,10.1700000763,7.78000020981,2.09999990463,12.6999998093
"2004-01-04 15:00:00",14.5500001907,0.00400000018999,99.0999984741,10.0900001526,7.78999996185,2.09999990463,12.6400003433
"2004-01-04 16:00:00",14.7299995422,0.00400000018999,97.5,9.89000034332,7.80000019073,2.0,12.6099996567
"2004-01-04 17:00:00",14.6800003052,0.00200000009499,95.5,9.69999980927,7.80000019073,2.20000004768,12.529999733
"2004-01-04 18:00:00",14.5,0.00200000009499,93.4000015259,9.52000045776,7.78999996185,2.09999990463,12.4899997711
"2004-01-04 19:00:00",14.3100004196,0.00200000009499,91.8000030518,9.39999961853,7.78000020981,2.20000004768,12.4499998093
"2004-01-04 20:00:00",14.1800003052,0.00200000009499,91.5,9.39999961853,7.76999998093,2.09999990463,12.4300003052
"2004-01-04 21:00:00",14.1300001144,0.00200000009499,91.3000030518,9.39000034332,7.76000022888,2.09999990463,12.4300003052
"2004-01-04 22:00:00",14.0500001907,0.00300000002608,91.0999984741,9.38000011444,7.73000001907,2.59999990463,12.4099998474
"2004-01-04 23:00:00",13.9600000381,0.00300000002608,91.1999969482,9.39999961853,7.73000001907,2.20000004768,12.3900003433
"2004-01-05 00:00:00",13.8900003433,0.00300000002608,91.0,9.40999984741,7.71999979019,2.20000004768,12.3699998856
"2004-01-05 01:00:00",13.8699998856,0.00300000002608,91.1999969482,9.42000007629,7.71999979019,2.0,12.3400001526
"2004-01-05 02:00:00",13.8500003815,0.00300000002608,91.0,9.40999984741,7.71000003815,2.20000004768,12.3199996948
"2004-01-05 03:00:00",13.8400001526,0.00600000005215,91.3000030518,9.43999958038,7.71000003815,2.09999990463,12.3100004196
"2004-01-05 04:00:00",13.8999996185,0.00600000005215,91.5,9.44999980927,7.71000003815,1.89999997616,12.2899999619
"2004-01-05 05:00:00",13.9099998474,0.00300000002608,91.5,9.44999980927,7.69999980927,2.29999995232,12.2899999619
"2004-01-05 06:00:00",13.9399995804,0.00400000018999,91.3000030518,9.43000030518,7.71999979019,2.59999990463,12.3000001907
"2004-01-05 07:00:00",13.970000267,0.00400000018999,91.4000015259,9.43000030518,7.71000003815,2.40000009537,12.279999733
"2004-01-05 08:00:00",14.1400003433,0.00400000018999,91.5,9.39999961853,7.71999979019,2.20000004768,12.279999733
"2004-01-05 09:00:00",14.3000001907,0.187000006437,93.0,9.51000022888,7.69999980927,3.5,12.3199996948
"2004-01-05 10:00:00",14.8299999237,0.305000007153,96.5,9.76000022888,7.71000003815,4.80000019073,12.6599998474
"2004-01-05 11:00:00",15.1999998093,0.170000001788,96.8000030518,9.71000003815,7.75,4.19999980927,12.5500001907
"2004-01-05 12:00:00",15.3999996185,0.157000005245,96.4000015259,9.63000011444,7.76000022888,4.40000009537,12.6599998474
"2004-01-05 13:00:00",15.6899995804,0.00700000021607,96.0999984741,9.55000019073,7.76999998093,4.40000009537,12.6800003052
"2004-01-05 14:00:00",15.9200000763,0.00300000002608,96.4000015259,9.52999973297,7.78000020981,5.0,12.5500001907
"2004-01-05 15:00:00",16.0699996948,0.00300000002608,95.4000015259,9.39999961853,7.78000020981,5.40000009537,12.4899997711
"2004-01-05 16:00:00",16.1299991608,0.00300000002608,93.8000030518,9.22999954224,7.78000020981,5.5,12.4499998093
"2004-01-05 17:00:00",16.3999996185,0.266000002623,88.5999984741,8.67000007629,7.71999979019,223.699996948,12.4099998474
"2004-01-05 18:00:00",17.5900001526,0.0780000016093,91.1999969482,8.69999980927,7.86000013351,668.5,12.3900003433
"2004-01-05 19:00:00",17.2900009155,0.0839999988675,91.4000015259,8.77999973297,7.71999979019,192.5,12.3599996567
"2004-01-05 20:00:00",17.0,0.0920000001788,87.6999969482,8.47000026703,7.59999990463,279.899993896,12.3400001526
"2004-01-05 21:00:00",16.6100006104,0.104000002146,85.5,8.32999992371,7.48999977112,213.399993896,12.3000001907
"2004-01-05 22:00:00",16.2800006866,0.118000000715,84.8000030518,8.31999969482,7.40000009537,170.199996948,12.279999733
"2004-01-05 23:00:00",15.8699998856,0.130999997258,84.6999969482,8.38000011444,7.34999990463,117.599998474,12.2700004578
"2004-01-06 00:00:00",15.3299999237,0.143999993801,85.0999984741,8.52000045776,7.30999994278,89.4000015259,12.25
"2004-01-06 01:00:00",14.6800003052,0.158999994397,85.9000015259,8.72000026703,7.30999994278,65.0,12.2299995422
"2004-01-06 02:00:00",14.0799999237,0.175999999046,86.4000015259,8.88000011444,7.32000017166,54.9000015259,12.2100000381
"2004-01-06 03:00:00",13.4300003052,0.129999995232,87.3000030518,9.10999965668,7.32000017166,42.5,12.1899995804
"2004-01-06 04:00:00",12.9200000763,0.136000007391,88.0,9.27999973297,7.36999988556,36.2000007629,12.1800003052
"2004-01-06 05:00:00",12.3500003815,0.143999993801,88.9000015259,9.5,7.42999982834,27.7999992371,12.1599998474
"2004-01-06 06:00:00",11.9200000763,0.153999999166,89.5999984741,9.67000007629,7.48000001907,23.6000003815,12.1499996185
"2004-01-06 07:00:00",11.4200000763,0.156000003219,90.1999969482,9.84000015259,7.53000020981,17.8999996185,12.1400003433
"2004-01-06 08:00:00",10.9399995804,0.16099999845,90.8000030518,10.0200004578,7.55999994278,14.1999998093,12.1199998856
"2004-01-06 09:00:00",10.6899995804,0.172000005841,92.8000030518,10.3100004196,7.61000013351,12.1999998093,12.3500003815
"2004-01-06 10:00:00",10.6099996567,0.331999987364,95.6999969482,10.6400003433,7.65000009537,11.3000001907,12.779999733
"2004-01-06 11:00:00",10.6400003433,0.326999992132,97.4000015259,10.8199996948,7.67999982834,8.69999980927,12.7100000381
"2004-01-06 12:00:00",10.9799995422,0.181999996305,99.0999984741,10.9200000763,7.73000001907,6.80000019073,13.5699996948
"2004-01-06 13:00:00",11.1800003052,0.179000005126,99.5,10.9200000763,7.78999996185,6.19999980927,13.5799999237
"2004-01-06 14:00:00",11.3000001907,0.326999992132,98.4000015259,10.7700004578,7.76999998093,9.39999961853,12.6700000763
"2004-01-06 15:00:00",11.2899999619,0.180999994278,97.5,10.6800003052,7.80000019073,9.19999980927,12.6300001144
"2004-01-06 16:00:00",11.0900001526,0.175999999046,96.5999984741,10.6300001144,7.76999998093,7.30000019073,12.6300001144
"2004-01-06 17:00:00",10.8100004196,0.179000005126,95.5,10.5699996948,7.76000022888,7.69999980927,12.4899997711
"2004-01-06 18:00:00",10.3699998856,0.186000004411,93.8000030518,10.4899997711,7.76000022888,7.40000009537,12.4600000381
"2004-01-06 19:00:00",9.86999988556,0.180999994278,93.4000015259,10.5699996948,7.80999994278,6.0,12.4300003052
"2004-01-06 20:00:00",9.46000003815,0.0939999967813,93.5,10.6899995804,7.82000017166,23.6000003815,12.4099998474
"2004-01-06 21:00:00",8.98999977112,0.0120000001043,93.5,10.8000001907,7.73999977112,5.59999990463,12.3900003433
"2004-01-06 22:00:00",8.52000045776,0.00700000021607,92.9000015259,10.8699998856,7.73000001907,7.59999990463,12.3599996567
"2004-01-06 23:00:00",7.98000001907,0.0939999967813,93.8000030518,11.1099996567,7.69999980927,8.80000019073,12.3400001526
"2004-01-07 00:00:00",7.53000020981,0.192000001669,94.5999984741,11.3299999237,7.69000005722,9.69999980927,12.3199996948
"2004-01-07 01:00:00",7.13000011444,0.194000005722,94.9000015259,11.4799995422,7.71999979019,9.0,12.3000001907
"2004-01-07 02:00:00",6.69999980927,0.00700000021607,94.6999969482,11.5799999237,7.73999977112,6.5,12.279999733
"2004-01-07 03:00:00",6.26999998093,0.0130000002682,94.9000015259,11.7399997711,7.73000001907,5.19999980927,12.2600002289
"2004-01-07 04:00:00",5.71999979019,0.00800000037998,95.5,11.9799995422,7.76999998093,3.59999990463,12.2399997711
"2004-01-07 05:00:00",5.63999986649,0.00800000037998,95.5,12.0,7.73999977112,3.79999995232,12.220000267
"2004-01-07 06:00:00",5.26999998093,0.00600000005215,95.8000030518,12.1499996185,7.75,3.20000004768,12.1999998093
"2004-01-07 07:00:00",4.80000019073,0.00600000005215,95.9000015259,12.3100004196,7.75,4.80000019073,12.1800003052
"2004-01-07 08:00:00",4.63000011444,0.00600000005215,96.4000015259,12.4399995804,7.76999998093,5.30000019073,12.1599998474
"2004-01-07 09:00:00",4.38999986649,0.00700000021607,97.1999969482,12.6099996567,7.73999977112,5.30000019073,12.1499996185
"2004-01-07 10:00:00",4.5,0.29699999094,99.0999984741,12.8100004196,7.73999977112,5.5,12.5799999237
"2004-01-07 11:00:00",4.80000019073,0.172999992967,100.300003052,12.8599996567,7.71999979019,5.80000019073,12.6999998093
"2004-01-07 12:00:00",5.46999979019,0.168999999762,102.300003052,12.8999996185,7.75,4.5,13.8000001907
"2004-01-07 13:00:00",5.86000013351,0.166999995708,102.900001526,12.8500003815,7.78000020981,3.79999995232,13.8000001907
"2004-01-07 14:00:00",6.09999990463,0.16400000453,101.900001526,12.6499996185,7.75,4.09999990463,12.8800001144
"2004-01-07 15:00:00",6.23000001907,0.165999993682,101.400001526,12.5500001907,7.75,8.30000019073,12.8800001144
"2004-01-07 16:00:00",6.48000001907,0.16400000453,101.199996948,12.4399995804,7.75,19.5,12.6899995804
"2004-01-07 17:00:00",6.46999979019,0.187000006437,100.0,12.3000001907,7.76000022888,24.5,12.529999733
"2004-01-07 18:00:00",6.30999994278,0.165000006557,98.6999969482,12.1899995804,7.73999977112,21.2000007629,12.4799995422
"2004-01-07 19:00:00",6.09000015259,0.166999995708,97.6999969482,12.1300001144,7.73999977112,19.1000003815,12.4399995804
"2004-01-07 20:00:00",5.90999984741,0.16400000453,97.5999984741,12.1700000763,7.71999979019,30.0,12.4200000763
"2004-01-07 21:00:00",5.71000003815,0.167999997735,97.4000015259,12.2100000381,7.75,37.2999992371,12.3999996185
"2004-01-07 22:00:00",5.46999979019,0.171000003815,97.3000030518,12.2700004578,7.73999977112,38.4000015259,12.3699998856
"2004-01-07 23:00:00",5.28999996185,0.175999999046,97.5,12.3599996567,7.71000003815,33.2000007629,12.3400001526
"2004-01-08 00:00:00",5.07999992371,0.182999998331,97.3000030518,12.3999996185,7.71999979019,23.2999992371,12.3299999237
"2004-01-08 01:00:00",4.92000007629,0.186000004411,97.3000030518,12.4399995804,7.67999982834,13.8000001907,12.3000001907
"2004-01-08 02:00:00",4.82999992371,0.184000000358,97.6999969482,12.5200004578,7.67000007629,9.30000019073,12.2899999619
"2004-01-08 03:00:00",4.69000005722,0.181999996305,97.4000015259,12.529999733,7.65000009537,7.5,12.279999733
"2004-01-08 04:00:00",4.57999992371,0.185000002384,97.4000015259,12.5699996948,7.67999982834,4.80000019073,12.2600002289
"2004-01-08 05:00:00",4.42999982834,0.187000006437,96.5999984741,12.5200004578,7.69000005722,3.79999995232,12.2399997711
"2004-01-08 06:00:00",4.0,0.185000002384,96.1999969482,12.6000003815,7.69999980927,3.40000009537,12.2100000381
"2004-01-08 07:00:00",3.91000008583,0.180999994278,95.1999969482,12.5100002289,7.67000007629,5.59999990463,12.1800003052
"2004-01-08 08:00:00",3.63000011444,0.178000003099,95.5999984741,12.6499996185,7.65999984741,4.80000019073,12.1499996185
"2004-01-08 09:00:00",3.61999988556,0.173999994993,96.5999984741,12.7899999619,7.67000007629,3.5,12.1499996185
"2004-01-08 10:00:00",4.25,0.31099998951,99.3000030518,12.9200000763,7.69999980927,5.40000009537,12.6300001144
"2004-01-08 11:00:00",4.84000015259,0.186000004411,100.699996948,12.9099998474,7.69999980927,4.80000019073,12.6700000763
"2004-01-08 12:00:00",5.34000015259,0.301999986172,101.5,12.8400001526,7.69999980927,6.40000009537,12.720000267
"2004-01-08 13:00:00",5.78999996185,0.180000007153,100.800003052,12.6000003815,7.73000001907,5.0,13.3500003815
"2004-01-08 14:00:00",6.36999988556,0.163000002503,102.199996948,12.6000003815,7.71999979019,5.5,12.8299999237
"2004-01-08 15:00:00",6.65000009537,0.168999999762,101.199996948,12.3900003433,7.73000001907,5.30000019073,12.7299995422
"2004-01-08 16:00:00",6.90999984741,0.17499999702,100.599998474,12.2299995422,7.73999977112,7.0,12.8400001526
"2004-01-08 17:00:00",6.90999984741,0.172000005841,99.0999984741,12.0500001907,7.73999977112,9.30000019073,12.5399999619
"2004-01-08 18:00:00",6.84000015259,0.171000003815,97.4000015259,11.8699998856,7.76999998093,9.60000038147,12.4899997711
"2004-01-08 19:00:00",6.82000017166,0.165999993682,96.5999984741,11.779999733,7.76999998093,6.59999990463,12.4600000381
"2004-01-08 20:00:00",6.73999977112,0.165999993682,96.4000015259,11.779999733,7.76000022888,5.40000009537,12.4399995804
"2004-01-08 21:00:00",6.67999982834,0.171000003815,96.1999969482,11.7700004578,7.73999977112,5.09999990463,12.4200000763
"2004-01-08 22:00:00",6.61999988556,0.172000005841,95.5999984741,11.7100000381,7.73000001907,5.80000019073,12.4099998474
"2004-01-08 23:00:00",6.48999977112,0.172000005841,89.9000015259,11.0399999619,7.71999979019,5.80000019073,12.3999996185
"2004-01-09 00:00:00",6.40999984741,0.172999992967,96.0,11.8199996948,7.71999979019,5.69999980927,12.3900003433
"2004-01-09 01:00:00",6.38999986649,0.168999999762,96.0,11.8199996948,7.71000003815,6.40000009537,12.3699998856
"2004-01-09 02:00:00",6.28000020981,0.173999994993,96.0,11.8599996567,7.71999979019,5.80000019073,12.3500003815
"2004-01-09 03:00:00",6.21999979019,0.173999994993,96.0999984741,11.8900003433,7.73000001907,5.30000019073,12.3299999237
"2004-01-09 04:00:00",6.19000005722,0.172000005841,96.1999969482,11.9099998474,7.71999979019,5.30000019073,12.3100004196
"2004-01-09 05:00:00",6.15999984741,0.172999992967,96.3000030518,11.9300003052,7.71999979019,5.5,12.2899999619
"2004-01-09 06:00:00",6.11999988556,0.177000001073,96.3000030518,11.9499998093,7.71000003815,6.69999980927,12.2700004578
"2004-01-09 07:00:00",5.86999988556,0.180000007153,96.0,11.9799995422,7.69999980927,5.09999990463,12.2399997711
"2004-01-09 08:00:00",5.23999977112,0.17499999702,95.4000015259,12.1000003815,7.73999977112,5.19999980927,12.2100000381